GFSCGP_850_thetae_024.txt.gz
Theta_e
315 319 318 322 320 319 321 321 321 323 323 325 325 325 326 326 324 324 326 326 326 327 326 324 324 325 325 326 325 323 316 317 325 327 328 327 328 327 327 326 326 326 326 324
314 314 316 317 317 317 318 321 322 322 323 323 324 326 326 327 326 327 327 328 326 326 325 325 325 325 325 325 326 322 316 321 326 327 326 326 327 327 326 325 325 326 325 322
314 316 316 316 319 318 318 320 322 322 322 322 324 326 327 327 327 328 329 328 325 327 326 325 325 325 326 326 326 323 318 324 327 330 328 325 326 327 327 326 326 325 324 324
313 315 317 317 316 320 321 321 322 324 323 324 324 327 324 325 325 324 325 326 326 326 325 325 325 326 326 326 325 323 321 325 329 330 330 326 328 329 326 326 325 326 325 325
313 315 315 315 315 317 321 321 322 324 324 323 324 324 323 323 325 324 322 326 326 326 325 325 325 326 326 326 325 323 322 326 329 330 329 327 328 326 326 326 324 325 324 324
314 315 315 315 316 317 321 322 322 323 323 325 324 324 326 324 325 325 325 324 326 325 325 325 326 326 327 327 326 324 323 328 330 329 328 327 325 325 326 326 327 327 326 326
316 315 316 316 315 317 320 320 322 323 325 326 324 326 327 324 324 323 325 326 326 326 326 326 326 327 328 327 325 323 325 328 329 329 326 324 325 325 326 327 327 326 326 326
316 317 317 317 316 316 317 319 322 324 326 326 324 326 326 323 324 325 327 327 327 326 326 326 327 327 328 326 324 324 327 328 328 328 325 323 324 325 324 325 328 326 327 327
315 317 318 318 317 317 316 316 317 322 325 324 324 325 326 323 327 326 326 327 327 327 327 326 327 328 328 326 323 323 329 328 328 328 325 326 327 325 326 325 326 327 327 327
316 317 318 318 317 317 316 319 320 319 324 326 326 327 327 323 328 328 327 326 327 327 327 327 327 328 327 326 323 324 328 327 328 327 326 328 327 327 326 324 326 326 326 327
316 317 320 318 316 316 315 316 318 320 321 324 325 325 321 322 322 329 326 326 328 327 327 327 328 328 327 325 323 324 326 327 327 327 327 328 328 327 325 326 326 326 325 326
316 314 317 318 318 317 316 316 317 322 323 322 323 324 323 322 324 327 327 327 328 328 327 327 327 327 325 324 324 323 326 326 326 326 326 328 329 327 325 327 325 326 326 326
317 316 317 319 319 319 317 317 319 320 321 323 325 324 323 325 326 328 328 328 327 328 327 327 327 326 325 324 324 324 325 325 325 325 326 328 328 327 327 327 327 327 327 327
313 318 317 319 321 320 319 318 320 323 324 323 325 324 326 324 327 326 328 328 328 327 327 327 327 326 325 323 323 324 324 326 323 323 326 325 327 327 327 324 327 326 327 327
309 318 317 317 319 321 321 320 320 325 323 326 324 324 325 323 327 327 328 327 326 327 327 327 327 326 325 323 323 324 324 326 322 322 325 323 326 325 328 325 326 327 326 327
309 314 319 318 318 318 319 321 320 324 324 323 324 325 323 323 327 328 327 326 326 326 327 327 327 326 325 323 323 324 325 325 322 321 322 321 325 327 329 329 328 328 326 325
309 314 317 319 319 318 318 319 322 324 325 323 323 322 322 324 322 327 327 327 326 326 327 327 327 326 326 323 322 324 325 325 322 320 319 320 322 328 327 328 329 324 323 323
310 312 314 320 318 321 321 320 322 324 324 325 322 321 323 324 326 326 329 328 327 327 327 327 327 326 326 324 323 323 324 325 323 320 319 320 318 329 328 326 328 325 324 324
309 311 316 322 320 320 320 322 322 323 323 322 323 321 322 325 326 324 329 329 329 328 328 327 327 327 326 325 323 323 324 325 324 320 319 319 317 326 329 327 325 325 325 325
311 311 319 323 319 321 319 324 322 323 325 322 322 321 321 321 324 322 327 329 329 330 329 328 327 327 327 326 323 323 323 324 324 323 319 319 319 318 322 328 327 325 325 325
318 317 318 320 324 321 320 322 324 326 325 322 323 322 321 321 324 327 328 329 330 330 329 328 328 327 327 326 323 323 323 324 323 324 321 320 320 316 319 327 327 327 326 325
319 323 323 322 324 324 321 323 324 321 322 325 325 324 324 325 326 326 327 327 330 330 329 329 328 328 327 327 324 323 323 323 323 324 320 321 321 319 319 319 323 324 325 325
316 314 319 320 322 318 320 318 318 324 324 326 325 325 326 325 326 327 327 327 329 330 330 329 329 328 327 327 326 324 323 323 323 324 321 321 321 320 318 317 318 321 321 321
312 312 315 317 319 315 317 316 316 320 325 327 326 327 326 326 326 327 327 326 328 330 330 330 329 328 328 327 326 326 325 323 323 324 322 321 322 321 318 318 318 317 320 316
312 314 314 316 316 315 316 315 315 314 320 329 327 327 327 326 326 326 326 326 327 329 330 330 330 329 329 328 327 326 325 323 323 324 322 322 322 322 320 319 319 317 316 316
314 312 314 316 314 314 315 313 315 314 315 325 327 327 327 326 326 326 326 326 329 329 330 330 330 330 329 328 328 327 325 324 323 323 323 322 322 322 321 320 320 319 318 316

GFSCGP_850_thetae_027.txt.gz
Theta_e
312 313 319 319 319 318 316 318 319 320 321 321 321 322 322 323 323 324 325 324 324 325 325 324 322 322 324 324 325 324 322 316 321 325 326 324 323 326 327 327 325 325 325 326
312 313 316 320 320 319 319 318 319 320 321 321 320 321 321 322 322 325 327 327 324 324 326 325 322 323 324 324 325 324 321 316 324 325 323 323 323 326 327 326 326 325 324 324
311 314 315 319 318 321 321 319 319 319 321 320 320 321 321 322 324 326 327 328 328 328 326 326 323 324 324 325 325 324 319 319 324 327 327 326 325 328 328 326 326 325 324 322
310 312 314 316 317 316 317 317 318 319 320 322 321 323 322 322 323 323 325 326 327 325 325 325 324 324 325 325 325 323 319 322 324 326 327 326 327 328 326 325 324 325 325 324
311 312 313 314 314 315 317 318 319 319 320 321 323 322 321 321 323 322 320 324 325 325 325 325 325 325 325 325 325 323 321 322 325 327 327 326 325 325 324 326 326 325 324 324
311 314 313 314 316 316 317 317 318 318 319 322 322 322 322 322 323 322 323 323 324 324 325 325 325 325 326 326 325 323 321 323 327 326 327 324 324 325 326 326 327 327 326 325
313 312 314 314 314 314 315 313 316 319 321 324 322 322 324 322 322 322 322 323 324 325 325 325 325 326 326 326 325 323 321 324 326 327 326 324 324 325 324 326 327 326 325 326
315 314 313 314 314 314 314 315 319 322 323 324 322 324 324 322 322 324 324 325 325 325 325 325 325 326 326 327 325 323 323 326 325 327 325 324 324 324 325 325 327 326 326 326
315 315 316 315 315 314 314 317 317 319 321 322 322 322 323 323 325 324 324 325 325 325 325 325 326 326 327 326 324 322 326 327 327 327 325 327 327 327 326 325 326 327 327 326
315 314 316 316 315 314 313 314 317 315 321 325 323 324 325 324 326 325 325 324 325 325 325 326 326 326 327 326 324 323 327 327 327 327 325 327 328 326 325 324 325 325 326 326
314 314 317 316 315 315 313 314 313 315 317 321 322 323 321 322 325 325 323 325 326 326 326 326 326 327 327 326 323 323 327 327 327 326 326 327 328 325 326 325 326 325 326 326
314 312 315 315 315 316 316 315 314 317 318 318 320 322 321 320 323 324 324 325 326 327 327 326 326 327 327 325 323 323 326 326 325 326 326 327 328 325 327 326 325 326 326 326
313 315 315 314 318 315 315 315 315 314 317 320 322 322 319 319 319 325 324 326 327 326 327 326 327 327 327 325 323 323 324 325 325 324 325 326 328 326 327 327 326 326 327 327
309 313 317 316 317 317 315 315 314 315 315 318 322 322 324 323 324 325 326 326 327 327 327 327 327 327 326 324 323 323 324 324 324 323 325 325 328 327 325 326 327 327 327 327
308 311 316 318 316 316 319 316 316 317 317 318 319 321 321 322 323 325 327 326 326 326 326 327 327 327 326 324 323 324 324 324 324 321 324 324 326 326 325 327 326 325 325 325
307 309 314 320 318 316 316 318 316 316 317 319 321 321 320 321 325 326 327 325 325 326 327 327 327 327 326 324 323 323 324 324 324 321 322 322 326 327 327 327 327 326 325 325
309 310 310 318 319 316 316 316 317 317 319 320 322 322 319 321 325 325 326 326 326 327 327 327 327 327 326 325 323 323 324 323 324 321 321 320 326 328 329 328 326 323 323 322
309 309 310 313 316 317 317 316 317 317 319 320 321 319 321 321 326 327 329 329 327 326 327 327 327 326 326 325 323 322 324 324 324 321 320 319 323 327 327 329 325 323 323 319
308 308 310 317 316 317 318 319 317 316 318 320 322 319 321 323 322 324 328 329 330 328 327 327 327 326 326 326 324 322 324 324 324 321 319 319 318 327 326 327 327 324 324 317
313 308 310 318 317 318 319 319 319 320 320 319 321 318 320 321 323 321 327 328 329 329 328 328 327 327 326 326 324 322 324 324 324 323 320 319 318 324 327 325 325 324 324 319
312 310 312 314 318 321 318 318 320 321 321 319 320 320 318 323 325 326 327 328 329 329 329 328 328 327 327 326 325 322 323 323 323 324 321 318 319 318 325 328 326 325 325 323
312 317 315 316 320 323 316 317 320 316 316 322 320 322 321 325 325 326 327 327 327 329 328 328 328 327 327 326 326 323 323 322 322 324 322 319 320 316 319 322 327 327 326 325
314 313 315 316 321 315 315 314 314 314 314 316 324 325 323 324 324 325 326 327 327 327 328 329 329 328 327 327 326 325 323 323 323 323 323 319 320 318 317 319 326 326 325 325
311 312 315 315 319 315 314 313 313 313 314 314 322 325 322 324 326 325 326 327 327 327 328 329 328 328 327 327 327 326 325 323 323 323 323 319 321 320 318 318 318 320 322 322
309 312 313 313 316 313 314 313 313 313 313 315 324 326 324 323 325 326 325 326 326 326 328 329 329 329 329 328 327 326 325 323 323 322 323 319 321 321 319 318 318 317 317 316
310 311 313 315 312 313 313 312 312 313 312 314 322 326 326 323 323 325 326 326 326 327 328 328 329 329 329 328 327 327 326 324 323 322 323 321 320 321 321 320 319 318 318 316

GFSCGP_850_thetae_030.txt.gz
Theta_e
309 310 316 314 314 313 314 314 314 316 318 318 317 318 320 320 321 320 322 323 324 325 326 324 324 323 323 322 322 324 324 322 318 323 325 323 322 323 326 326 326 325 325 325
309 311 312 315 315 315 316 315 316 317 318 319 318 319 319 319 319 321 322 323 325 325 326 324 324 323 321 322 324 324 323 319 319 324 324 324 323 325 327 328 326 326 324 324
309 311 312 316 317 318 318 318 317 318 318 318 319 318 319 320 320 321 323 324 325 327 326 325 324 321 321 323 324 324 322 318 320 325 325 325 324 326 327 326 325 324 324 321
308 310 312 315 317 318 318 319 320 320 318 317 318 321 319 320 320 320 322 324 326 326 325 325 324 322 323 324 324 324 321 318 321 325 325 325 325 325 325 324 325 324 325 324
308 309 310 313 316 318 317 318 320 318 316 317 318 320 320 319 321 321 320 323 324 323 323 324 324 323 324 324 325 323 320 318 322 325 325 325 324 325 326 325 326 327 325 324
310 312 310 312 314 317 316 316 316 316 316 318 318 320 320 320 321 321 320 323 323 323 324 324 323 324 325 325 324 323 319 319 323 325 325 324 324 324 324 326 327 326 327 324
311 310 312 312 313 313 314 313 313 315 317 319 318 319 320 320 320 321 321 322 323 324 325 324 323 324 325 325 324 323 318 320 324 326 325 323 324 324 325 324 327 326 325 326
314 312 312 312 312 312 313 313 314 316 319 322 319 322 321 320 321 323 322 322 323 324 325 324 324 325 325 325 325 322 317 323 325 326 324 324 326 325 325 325 326 326 326 326
314 315 314 314 313 314 313 314 313 316 319 320 320 320 320 320 320 321 321 323 323 324 325 325 325 325 325 326 325 322 321 326 326 327 325 327 327 325 324 325 326 326 326 326
312 314 314 313 314 313 313 313 314 314 320 323 321 322 322 322 322 324 323 322 323 324 325 325 325 325 326 326 324 321 323 325 327 326 325 327 327 325 325 325 324 326 326 326
312 312 314 313 314 312 310 314 313 313 315 319 321 321 319 321 321 323 322 323 324 325 325 325 325 326 326 326 323 321 325 326 326 326 325 327 326 326 325 325 325 326 326 326
310 311 314 314 313 314 313 311 312 316 315 315 318 320 318 320 320 321 322 324 324 325 325 325 325 326 327 325 323 322 325 326 326 326 326 328 325 326 327 325 326 325 325 325
311 312 314 314 315 313 314 312 313 312 312 317 316 317 318 319 320 321 322 324 325 325 325 325 325 326 327 325 323 322 325 325 325 325 325 327 326 326 327 326 326 326 326 325
310 309 314 315 315 313 314 314 313 311 312 316 317 318 321 321 320 320 323 324 325 325 325 326 326 326 326 325 324 322 324 325 325 324 324 326 327 325 325 327 327 327 327 325
309 309 312 313 315 316 315 315 314 314 314 315 317 320 320 320 320 321 324 324 325 325 326 326 326 327 326 325 324 323 323 324 324 323 324 325 327 326 327 325 325 324 326 327
309 308 309 311 315 317 317 315 315 315 314 314 316 315 317 319 321 324 325 325 325 325 326 326 326 327 326 325 324 323 323 323 324 322 323 324 326 326 325 326 325 325 326 327
310 308 308 309 310 314 317 317 315 315 314 315 316 317 318 321 321 323 325 326 326 327 326 327 327 327 326 325 324 322 323 322 323 322 323 321 325 327 327 326 324 324 323 327
310 309 308 309 313 318 317 315 315 314 315 314 315 316 318 319 323 325 326 327 327 328 327 327 327 327 326 325 324 322 323 322 323 323 322 320 326 327 329 326 323 321 319 325
309 310 308 312 318 316 317 317 316 314 315 315 316 316 318 320 323 324 326 327 326 329 328 327 327 326 326 326 325 322 323 323 323 323 321 320 323 326 327 328 324 323 318 321
310 310 310 313 319 318 318 317 316 317 315 314 317 319 317 319 323 323 326 326 327 328 328 327 327 326 326 326 325 323 322 323 323 323 320 319 318 325 326 326 325 323 318 318
311 312 311 312 313 316 317 315 315 316 315 313 314 316 319 319 323 326 327 327 327 328 329 328 327 326 326 326 325 324 322 323 322 323 321 319 318 321 326 326 324 323 321 315
313 315 312 312 315 321 315 314 315 313 312 313 314 314 315 321 323 325 326 327 327 328 328 328 327 327 327 326 326 325 322 321 322 323 322 319 318 319 325 326 326 324 323 319
314 313 314 315 319 314 314 314 313 312 312 312 312 313 315 322 322 323 326 326 326 327 328 328 328 327 327 327 326 326 324 322 322 323 323 320 318 318 322 325 327 326 325 323
311 311 313 314 315 314 312 313 312 311 312 311 311 313 322 324 323 322 325 326 326 326 327 328 328 328 328 327 326 326 325 323 322 322 323 321 319 319 317 320 322 326 326 324
308 311 313 313 312 311 313 311 312 312 311 311 313 315 321 325 322 321 323 326 326 326 326 327 328 328 329 328 327 326 326 324 323 322 323 322 319 320 317 317 318 322 322 319
309 310 312 313 309 310 311 311 310 312 310 311 312 314 319 325 322 321 323 323 325 326 327 326 327 327 329 328 327 327 326 325 324 323 322 322 319 320 319 318 317 318 318 318

GFSCGP_850_thetae_033.txt.gz
Theta_e
309 312 316 315 317 318 321 320 321 320 318 318 321 322 322 321 321 322 322 323 323 323 323 325 325 324 323 322 323 322 322 322 324 323 318 324 325 323 323 326 326 327 326 325
310 312 314 316 316 315 316 317 318 318 318 319 321 321 322 322 321 322 322 322 323 325 324 325 325 323 322 321 322 322 323 324 323 319 323 324 324 323 326 327 327 326 325 324
313 314 313 314 316 315 316 317 317 318 321 321 321 322 322 322 322 321 322 324 324 325 324 324 324 323 321 321 322 323 324 324 320 322 325 326 324 325 326 326 325 325 325 322
312 313 313 313 315 316 318 317 317 318 319 322 321 324 323 321 321 324 325 326 325 323 323 324 324 323 321 321 323 324 324 321 320 325 326 324 325 325 325 324 326 324 324 323
311 311 312 313 314 316 317 318 318 318 320 321 321 321 322 323 321 322 324 326 325 323 323 323 324 323 321 323 324 324 322 320 322 326 325 324 324 325 325 326 326 327 326 324
313 311 312 313 314 316 317 319 320 320 321 322 321 320 323 321 321 323 325 326 323 324 324 324 323 322 323 324 324 323 321 320 323 324 324 324 324 324 325 324 327 326 326 325
313 312 312 312 314 316 318 319 321 321 322 323 321 321 321 322 323 325 325 326 324 324 324 324 323 325 324 324 324 323 320 319 323 324 324 323 324 324 325 325 326 326 326 325
316 315 313 312 313 315 318 320 321 324 324 321 321 320 320 323 322 322 324 325 324 325 325 324 325 325 324 324 324 322 319 321 324 325 323 324 326 326 325 325 326 326 326 326
316 316 315 313 314 315 317 319 318 319 322 320 322 323 324 325 326 326 324 324 326 327 325 325 325 324 325 325 324 322 319 323 323 326 324 326 327 325 324 325 326 326 326 326
314 316 316 314 314 316 317 318 317 318 319 320 323 325 323 327 327 328 328 327 326 326 326 325 325 324 325 325 324 320 323 325 325 326 325 327 326 325 325 324 325 326 326 326
313 316 316 315 314 315 315 317 317 318 319 318 318 321 328 328 329 329 329 328 326 326 326 325 325 325 325 325 323 320 324 325 326 326 325 327 325 326 325 325 325 326 326 326
311 317 318 317 316 316 315 317 318 317 319 318 320 320 323 327 326 328 329 327 326 327 326 326 326 325 325 325 323 320 324 325 326 326 325 327 325 327 326 326 325 325 325 326
311 317 317 318 316 316 317 316 318 319 320 319 319 321 323 323 325 326 328 326 326 326 326 326 326 325 325 325 323 321 323 324 325 326 326 327 326 326 326 325 326 326 325 325
309 314 317 318 317 317 316 316 316 318 319 318 318 319 322 324 324 326 327 327 326 327 326 326 326 326 326 325 322 321 322 324 325 325 325 327 325 325 327 326 327 327 325 324
310 312 313 314 313 315 318 316 316 317 318 318 319 319 320 323 322 326 327 326 326 327 327 327 326 326 326 325 323 322 322 324 325 324 325 327 326 326 326 324 325 326 327 324
310 313 312 314 315 315 317 318 317 316 316 317 318 320 321 321 323 326 327 326 327 327 327 327 326 326 326 325 323 322 322 323 324 323 325 326 326 325 326 325 325 325 327 327
311 312 313 317 314 315 318 318 318 317 316 317 318 318 319 321 323 325 328 327 327 328 328 327 326 326 326 324 323 322 322 322 323 323 324 324 326 325 326 325 324 323 326 327
311 312 312 314 316 318 318 320 319 318 318 318 318 318 319 319 320 323 326 328 328 328 327 327 326 326 326 324 322 322 322 322 323 324 323 322 326 327 326 322 321 319 326 326
310 312 313 314 319 320 320 320 320 320 320 318 321 320 320 320 321 322 324 324 326 328 327 327 327 327 326 325 323 322 322 322 322 323 322 322 326 328 327 324 322 318 322 326
311 311 313 315 318 319 322 318 316 318 322 317 317 319 320 322 320 322 323 323 324 326 327 328 327 327 326 325 324 322 321 323 321 322 322 321 324 326 328 325 323 318 319 322
313 314 314 315 317 318 318 317 316 324 320 315 315 316 317 321 324 324 323 326 324 326 326 327 327 327 326 325 325 323 321 322 321 322 322 320 319 325 326 327 323 320 317 318
315 315 314 315 316 321 316 317 319 316 314 313 314 315 315 317 318 320 322 323 328 326 326 327 327 326 326 325 325 324 321 320 322 322 322 321 319 321 327 326 324 322 317 316
314 314 317 316 318 313 313 315 314 313 313 313 313 314 315 317 321 324 326 324 326 327 326 327 328 327 326 326 325 325 323 320 321 323 323 322 319 319 325 325 325 324 322 316
311 311 314 315 314 313 312 312 311 312 313 312 313 313 315 317 320 325 327 325 324 326 326 327 327 327 326 326 326 325 324 322 320 322 323 323 320 319 320 326 326 325 325 323
308 309 313 313 312 311 314 311 310 311 312 313 313 314 315 317 319 322 326 324 323 325 326 327 327 328 327 327 326 326 325 324 321 321 322 323 321 318 318 321 323 326 326 323
309 310 312 313 310 309 309 310 311 311 311 313 313 314 315 317 320 322 326 321 322 324 325 325 327 328 327 327 327 326 326 326 323 321 321 322 322 319 319 317 317 317 324 323

GFSCGP_850_thetae_036.txt.gz
Theta_e
313 314 317 320 321 323 325 327 328 327 326 326 326 326 326 325 326 327 326 325 324 326 326 328 328 324 325 323 324 325 324 326 325 324 329 330 330 331 331 331 332 331 329 330
316 315 318 318 320 321 323 325 327 327 326 327 325 326 328 328 328 327 325 325 326 327 329 329 329 325 324 325 326 326 330 323 323 330 330 331 332 330 331 332 333 330 329 329
317 317 316 317 319 320 321 323 325 325 325 325 324 325 327 328 327 326 325 324 323 327 329 331 330 329 329 329 327 327 328 322 324 331 330 323 327 328 331 332 332 332 328 328
315 317 317 316 317 320 321 321 320 321 322 324 324 329 328 328 328 328 326 324 325 329 330 332 331 331 330 331 331 332 328 323 324 321 330 332 330 330 332 331 331 330 328 329
315 316 317 318 317 318 319 319 320 320 322 323 323 325 328 328 328 328 327 325 327 330 331 332 331 331 331 331 332 332 325 327 326 321 331 331 329 332 331 331 330 330 329 328
315 315 316 318 317 317 318 319 320 321 322 325 324 326 328 329 329 329 328 324 329 331 331 331 331 330 331 331 331 331 331 332 325 329 331 326 332 331 331 332 331 329 330 328
316 316 315 316 317 317 318 320 323 325 327 327 326 328 329 328 327 326 326 327 331 331 331 331 330 331 331 331 331 332 332 332 332 332 331 329 330 329 331 331 331 329 328 329
316 318 316 315 317 318 319 322 322 325 329 329 327 328 329 326 326 325 324 324 330 331 331 331 330 331 330 330 331 331 332 331 331 331 331 328 328 331 331 330 331 328 328 327
317 318 317 316 316 318 319 323 322 327 328 326 330 328 325 325 326 325 327 324 329 331 331 330 331 330 330 331 332 332 331 330 331 331 330 330 332 331 330 329 328 328 328 329
316 319 319 316 317 318 320 321 324 324 328 328 326 326 326 326 327 326 328 329 330 332 331 330 330 330 330 331 332 331 329 330 330 331 331 332 332 332 329 331 331 329 328 330
315 317 320 318 317 318 319 322 322 324 324 327 328 325 324 327 326 328 331 331 333 332 330 330 330 330 331 331 331 329 329 330 331 330 332 333 332 331 330 330 331 329 329 331
314 318 322 319 318 319 319 320 322 323 324 324 325 323 326 328 330 330 331 331 332 331 330 330 329 330 330 331 330 328 328 329 330 330 332 333 332 331 330 331 331 330 330 330
311 317 321 321 320 318 319 320 322 323 325 325 324 321 322 328 329 331 333 332 331 331 330 330 330 330 330 331 329 327 328 328 329 330 331 332 332 332 331 331 329 331 330 330
310 315 319 322 320 319 319 319 321 322 323 323 322 321 323 328 329 331 332 331 331 331 331 330 330 329 330 331 327 326 327 327 328 329 330 332 332 332 331 331 331 330 330 329
313 315 317 318 318 318 321 319 319 321 321 322 321 321 321 326 327 329 329 331 331 332 331 331 330 330 330 330 326 326 326 327 327 329 329 332 331 331 330 331 331 329 330 325
313 317 316 318 317 318 319 320 319 319 320 321 320 321 321 322 322 322 329 331 331 332 331 331 330 330 330 329 326 326 326 326 327 328 329 331 331 331 331 331 331 330 326 325
313 315 317 318 317 319 320 320 320 319 320 320 321 321 321 322 323 323 326 329 330 332 331 331 330 330 331 329 326 326 326 326 326 327 328 330 331 330 331 330 330 331 328 326
312 315 316 319 318 321 323 322 320 321 320 320 319 321 322 322 321 323 324 329 330 331 332 332 331 331 331 328 326 326 326 325 325 326 327 328 330 330 331 328 329 330 329 328
311 314 319 320 320 319 322 323 324 321 323 322 324 323 323 322 323 323 323 323 328 331 332 332 332 332 331 329 327 326 325 325 324 325 326 327 329 331 330 327 327 330 329 328
312 312 316 319 322 320 325 322 320 322 327 321 321 323 324 324 323 324 328 329 328 330 332 333 332 332 332 330 327 326 325 324 323 324 325 326 329 331 331 329 327 328 329 330
314 314 315 317 321 324 321 320 319 326 325 320 320 321 322 325 325 325 325 326 328 330 332 333 333 332 332 330 328 326 325 325 324 323 324 325 328 331 332 330 327 328 327 330
314 315 315 315 319 324 318 320 324 319 318 319 319 320 320 321 322 323 324 326 327 329 331 332 333 332 332 331 329 326 325 325 324 323 323 325 326 329 331 331 328 326 327 327
318 316 318 318 320 314 315 316 315 315 317 318 318 319 319 321 323 324 325 329 330 327 330 332 332 333 332 331 329 327 326 325 325 324 324 325 326 327 331 331 328 326 325 324
314 312 316 318 314 313 313 314 314 314 316 316 317 318 319 321 323 324 325 328 331 328 330 331 332 332 332 331 330 328 327 324 325 325 325 325 326 325 329 330 329 326 324 321
309 309 311 316 315 313 314 314 313 313 314 315 317 317 318 320 322 325 327 328 330 328 330 331 331 332 332 331 330 329 328 325 325 326 326 326 325 325 327 329 329 328 327 323
310 311 313 315 312 312 312 312 312 312 313 313 315 317 318 319 321 324 329 330 330 327 328 330 331 332 332 331 330 329 329 327 326 326 326 326 325 324 325 325 328 328 328 325

GFSCGP_850_thetae_042.txt.gz
Theta_e
314 316 318 318 319 320 323 325 325 328 327 328 330 330 331 332 331 331 330 329 329 330 328 328 329 330 331 330 332 334 337 338 337 340 342 339 336 335 335 334 334 334 334 335
315 318 319 318 318 319 321 323 325 326 325 327 329 331 332 332 332 331 331 330 329 329 330 331 330 332 332 332 331 334 337 337 338 340 338 337 335 335 335 335 334 334 334 331
315 316 317 318 318 319 321 322 324 324 324 326 328 330 332 331 331 330 330 329 330 328 327 328 330 334 335 334 333 334 336 338 338 337 336 336 335 335 335 334 332 331 332 331
313 316 315 318 319 319 321 320 321 322 324 327 327 331 333 332 332 333 331 331 329 328 328 330 331 336 337 337 338 338 337 336 335 337 335 334 336 333 333 334 334 333 333 332
310 313 316 316 319 319 320 320 321 322 324 326 326 328 329 330 331 331 331 330 328 328 330 330 338 338 338 339 339 338 338 334 337 335 336 336 335 332 331 333 333 333 333 331
310 311 313 317 317 318 320 320 320 322 324 327 328 327 328 329 330 329 330 328 328 329 330 334 338 338 339 339 339 339 337 337 336 336 336 336 335 333 334 334 333 332 332 329
313 312 311 313 316 318 319 323 324 324 325 327 326 327 329 328 329 329 329 329 329 330 331 337 339 338 338 338 339 338 337 338 337 336 337 333 334 331 333 331 333 333 332 329
318 318 311 313 315 318 319 323 323 324 324 325 324 327 327 328 329 328 328 329 330 331 336 338 338 338 338 338 338 338 338 338 337 337 335 334 334 334 333 332 332 331 332 331
316 318 316 312 315 317 320 321 323 324 324 324 326 327 328 329 330 330 331 330 331 336 337 337 337 337 337 338 337 337 338 338 336 334 334 333 334 334 334 333 331 329 328 330
312 315 316 317 313 316 319 320 322 324 324 327 326 328 330 333 333 331 332 332 331 337 337 337 337 337 337 337 337 337 337 336 334 334 333 334 331 331 331 331 331 329 331 331
312 314 316 317 315 316 319 319 321 325 324 326 328 328 334 333 330 331 333 330 331 337 337 337 337 337 337 337 337 337 336 334 333 333 333 332 332 332 331 331 332 331 330 330
312 316 320 318 318 316 320 320 322 325 326 325 327 328 331 330 329 331 331 329 334 336 336 337 336 336 337 337 337 336 334 333 333 332 333 331 333 332 331 332 330 332 330 330
312 316 318 318 318 320 321 321 323 325 329 328 327 329 330 327 329 329 332 328 336 336 336 336 336 336 337 336 336 333 332 332 332 332 332 333 333 331 332 331 331 330 329 331
312 313 315 320 320 320 324 323 322 324 326 326 328 327 327 328 331 331 333 336 336 336 336 335 335 336 336 336 334 332 331 332 331 332 332 333 333 331 330 331 331 332 330 330
313 314 314 315 314 317 320 321 322 323 326 326 327 329 327 331 333 336 337 337 336 336 335 335 335 336 336 335 332 330 330 331 331 331 333 331 332 330 330 329 330 330 330 329
312 314 314 317 315 314 316 319 322 322 323 326 328 329 329 329 329 334 335 335 336 335 335 335 335 335 335 334 330 329 329 331 330 331 334 331 333 331 330 329 329 329 329 329
313 315 319 318 315 317 319 322 324 325 325 326 328 330 330 329 327 330 334 335 335 334 334 334 335 335 335 333 329 329 329 330 330 331 334 332 331 330 329 330 330 330 329 330
313 314 317 319 318 318 319 324 324 322 324 327 327 324 325 326 325 327 331 333 334 334 334 334 334 334 334 332 328 329 329 329 329 331 331 332 332 329 330 329 330 330 328 328
312 313 320 320 321 319 322 327 328 323 328 328 328 326 324 325 330 331 330 331 333 334 334 334 334 334 334 331 328 328 329 329 328 330 331 331 332 330 329 331 328 329 328 327
312 313 317 318 324 325 325 324 324 325 330 327 328 329 329 327 330 332 329 329 330 332 334 334 335 335 334 331 329 328 328 328 327 329 330 331 332 330 328 329 330 327 328 329
312 315 318 320 322 323 318 321 323 329 328 326 326 326 326 328 328 327 327 328 329 330 334 335 335 335 335 331 329 328 328 328 327 329 330 330 332 330 329 328 330 328 329 330
318 319 319 319 321 324 315 320 325 322 322 323 324 324 324 325 326 327 328 328 329 330 332 336 336 336 335 332 329 328 328 327 326 328 329 330 333 332 330 327 329 330 327 328
318 314 316 318 319 315 316 317 317 318 320 321 322 323 323 324 325 327 328 329 329 329 332 333 336 337 336 332 330 329 328 327 325 327 328 329 333 333 330 328 329 329 331 328
313 313 315 316 314 317 315 316 317 316 317 319 319 320 322 324 324 326 328 329 331 330 331 332 337 337 337 334 331 329 328 327 325 326 328 329 332 335 332 330 327 327 331 331
313 314 314 315 314 314 313 313 315 316 316 317 317 318 320 323 324 325 327 329 332 332 332 332 335 337 337 335 332 330 328 327 326 326 327 328 331 334 333 330 328 326 327 330
311 312 313 314 312 312 312 312 313 314 315 317 317 317 319 321 323 324 326 329 333 335 333 333 333 337 337 337 334 331 328 327 326 326 327 328 329 331 333 332 329 328 324 324

GFSCGP_850_thetae_045.txt.gz
Theta_e
310 310 313 313 314 316 319 322 322 323 323 324 324 324 324 326 326 326 327 328 330 329 328 328 328 328 328 331 330 331 333 334 336 339 340 340 340 339 336 334 332 333 334 334
313 310 312 314 315 316 317 317 318 321 323 323 323 324 325 326 325 326 327 329 330 330 329 328 328 327 331 332 331 332 333 336 338 340 341 339 339 340 336 333 333 333 334 334
313 313 313 314 315 316 316 317 316 317 320 321 321 321 321 323 326 327 329 329 330 330 329 328 328 329 332 331 332 332 334 338 339 340 340 336 335 335 334 334 335 334 334 332
307 310 315 314 314 316 316 317 318 319 320 320 320 320 321 323 325 326 328 329 330 330 330 329 328 330 333 333 333 333 334 337 337 338 336 336 336 336 336 336 334 333 331 333
307 308 310 313 314 316 317 318 317 319 318 318 319 320 322 324 325 326 326 327 328 329 328 329 328 333 334 335 334 334 334 336 337 335 335 337 335 334 334 334 334 333 333 332
308 309 308 308 311 315 315 317 317 317 317 317 318 320 321 321 323 324 324 327 327 326 327 330 334 335 337 336 335 336 334 335 336 337 335 335 334 333 332 333 333 332 332 332
311 311 311 310 309 310 313 313 314 317 317 318 318 320 322 322 323 324 324 326 326 327 329 336 337 337 337 336 337 335 332 335 336 335 336 335 335 331 334 334 332 331 332 330
313 315 315 315 310 309 310 313 315 318 319 318 319 321 320 322 324 324 325 325 326 328 334 337 337 337 337 338 337 334 335 337 335 336 336 334 332 327 328 332 332 331 329 330
314 313 312 311 311 310 309 310 315 315 318 318 319 320 320 320 321 323 323 326 335 334 338 338 338 338 337 338 336 333 336 336 333 334 333 330 330 335 334 332 331 330 327 328
312 312 310 310 312 315 315 312 315 315 317 320 320 320 320 321 323 323 326 326 337 338 338 338 338 338 338 337 336 336 337 336 335 334 333 331 332 331 331 331 330 329 329 330
310 311 312 312 312 315 314 311 311 314 316 319 321 320 320 328 328 325 326 328 337 337 337 337 337 338 337 337 337 338 338 336 334 333 331 332 331 330 331 330 332 330 331 329
311 313 314 312 313 314 315 313 311 314 317 318 319 320 321 324 327 326 326 329 336 337 337 337 337 337 337 336 337 337 337 334 333 331 333 331 331 331 331 331 330 330 330 329
311 311 313 314 313 315 318 320 315 316 317 318 320 321 320 324 327 327 325 331 336 337 337 337 337 337 336 337 337 337 335 333 332 332 331 331 331 330 330 331 330 330 329 330
311 310 312 313 314 315 317 316 317 317 319 319 320 320 320 325 326 326 330 335 336 336 336 337 337 337 336 337 336 335 332 332 332 333 331 331 331 330 330 330 331 330 329 331
311 312 311 310 311 313 315 315 316 316 317 320 319 321 320 326 328 334 334 335 335 336 336 336 337 337 336 336 335 332 332 332 331 333 331 330 331 329 329 329 330 331 329 330
311 311 312 314 314 314 316 315 314 315 316 319 320 321 327 326 333 335 335 335 336 336 335 335 336 336 336 335 333 331 332 331 331 334 331 330 330 329 328 328 329 329 329 330
311 313 315 317 316 315 315 313 314 315 317 319 322 326 325 326 329 332 335 335 335 335 335 335 336 336 336 334 331 329 331 331 330 333 332 331 330 329 328 329 328 329 329 329
310 311 314 318 318 319 315 316 323 325 325 325 325 327 326 329 329 329 331 334 335 335 335 335 336 336 335 333 330 328 330 330 329 333 332 330 330 327 329 328 329 329 328 328
310 312 317 320 320 319 317 320 321 326 329 328 326 324 326 330 329 327 329 329 332 335 334 334 335 335 335 331 329 328 330 329 329 331 332 332 329 328 328 329 328 328 327 328
311 313 315 317 320 324 319 317 318 322 328 327 327 327 327 327 328 327 328 329 330 334 334 334 334 335 334 331 328 328 330 329 328 330 331 331 329 329 328 328 325 328 328 327
315 315 315 317 320 317 314 315 320 329 327 322 325 325 325 326 326 327 328 329 330 332 335 334 334 334 334 331 328 328 329 328 328 330 330 331 330 329 329 327 327 328 329 328
314 317 318 317 320 321 313 315 321 318 318 321 320 321 324 325 326 328 328 329 329 330 334 336 334 334 334 332 329 328 328 328 327 330 330 330 331 330 329 324 327 328 329 329
314 314 315 311 313 315 311 313 315 316 317 318 318 319 320 323 325 326 327 329 330 330 331 335 335 334 334 332 330 328 328 327 326 329 329 330 331 331 330 324 328 328 329 327
313 313 315 315 314 315 313 313 312 313 314 317 317 317 318 319 323 324 326 328 330 332 331 332 338 335 334 333 331 329 328 327 326 328 329 331 332 332 331 324 326 329 328 328
312 312 310 314 313 312 312 312 312 312 315 315 317 317 317 318 319 324 325 326 329 331 334 333 334 336 335 334 332 329 329 327 326 327 329 330 332 333 332 328 324 326 330 330
310 310 312 312 310 311 312 311 312 313 314 314 315 316 316 317 319 323 324 325 327 330 333 335 335 337 335 335 334 330 329 327 326 327 328 328 330 333 333 326 326 327 327 330

GFSCGP_850_thetae_048.txt.gz
Theta_e
308 306 309 310 312 314 317 318 319 321 320 321 321 322 323 324 323 323 324 325 326 327 328 327 329 329 327 328 327 328 329 329 330 333 338 341 342 342 338 336 334 334 332 333
308 307 309 310 312 313 314 315 316 316 317 320 321 321 322 323 323 323 323 324 324 325 326 327 328 328 329 328 328 329 330 330 332 335 338 340 340 340 339 339 338 334 333 332
311 312 312 310 311 313 313 313 314 315 316 315 316 317 318 319 320 321 322 323 325 327 328 329 329 329 328 328 328 330 332 332 335 339 341 341 340 339 340 338 334 333 333 333
305 306 308 312 309 312 313 314 314 315 316 316 316 316 317 318 319 319 320 323 325 325 326 327 329 328 328 329 332 332 334 336 340 341 341 339 336 334 334 333 334 334 334 334
306 306 307 309 311 313 312 314 315 316 315 315 316 315 318 317 319 319 320 323 324 325 326 327 328 328 329 332 333 333 335 338 339 339 338 334 333 334 335 335 335 334 334 333
306 307 306 306 308 308 310 313 314 314 314 315 315 316 318 317 318 318 321 324 325 324 324 325 327 329 332 334 335 335 335 337 338 337 335 336 337 335 334 333 333 332 332 331
311 309 307 308 307 307 307 308 311 313 314 317 315 315 317 318 318 318 318 321 322 324 325 326 327 332 335 336 336 335 336 337 336 334 335 335 334 334 333 332 332 332 332 330
313 313 314 314 312 309 306 306 310 313 316 316 316 316 317 317 318 319 320 321 322 324 324 330 333 335 336 337 336 335 335 335 337 335 335 335 333 333 333 334 333 330 330 328
312 312 310 309 309 309 309 307 308 310 312 314 316 317 317 317 317 318 318 320 323 325 328 334 336 337 337 337 336 333 333 335 336 335 335 335 334 332 327 330 331 330 329 328
311 310 310 309 310 309 310 311 308 308 313 315 315 317 318 317 317 318 317 318 325 330 336 338 338 338 337 337 335 333 334 334 335 334 331 325 325 330 330 330 330 329 328 328
310 310 310 311 310 311 313 311 310 309 311 315 315 316 316 317 317 318 321 321 335 336 337 338 338 337 337 336 333 334 334 332 332 330 327 329 330 330 330 330 330 329 330 329
308 310 312 310 309 309 311 313 312 308 309 313 315 316 318 315 316 318 320 334 336 337 338 338 338 337 337 334 334 335 334 332 331 331 330 332 331 330 330 330 331 329 329 329
310 309 310 307 310 313 313 317 314 314 308 311 314 316 316 316 318 319 323 334 335 336 337 337 338 337 336 336 336 336 334 332 332 329 331 331 330 330 330 330 330 329 328 329
311 310 309 308 309 312 312 314 314 315 317 314 313 314 316 317 317 318 326 334 335 336 337 337 337 337 336 337 337 336 334 331 331 331 330 331 330 330 330 330 329 328 329 329
309 311 311 310 310 310 311 312 313 315 315 317 318 316 316 316 317 318 325 334 335 335 336 337 337 336 336 336 337 336 333 331 330 331 330 330 330 329 330 329 329 328 329 330
310 313 314 313 311 312 313 314 314 314 314 315 316 316 317 317 328 330 331 334 335 335 336 336 336 336 337 336 336 335 331 331 330 331 330 329 329 328 328 328 329 329 329 330
308 309 312 313 314 315 316 315 315 313 314 315 316 316 317 329 331 330 333 335 335 335 335 336 336 336 336 336 334 332 331 331 330 332 330 330 329 327 328 328 328 329 328 330
308 309 312 312 314 318 315 319 321 322 324 326 323 319 320 328 327 331 332 334 335 335 335 336 336 336 336 335 332 329 331 331 330 331 331 330 328 327 327 329 328 329 329 329
308 310 312 316 319 319 318 315 318 322 325 325 323 327 325 328 328 328 329 331 334 335 335 335 336 336 336 335 331 329 331 331 330 332 330 330 328 327 327 328 328 329 329 328
309 310 313 314 318 321 315 311 311 316 326 321 320 323 328 326 330 328 329 330 333 335 335 335 335 335 335 334 330 328 330 330 329 332 331 330 328 328 327 327 326 328 328 327
315 313 314 314 317 317 313 310 315 327 321 316 319 321 323 326 328 327 329 330 332 334 334 334 335 335 335 333 329 328 329 329 328 330 331 331 329 328 328 327 325 327 327 327
313 314 317 315 319 318 310 311 316 314 314 314 316 318 319 320 325 325 329 331 330 334 334 335 335 335 335 332 329 328 328 328 327 330 331 331 330 329 328 327 325 327 328 327
315 313 313 310 311 309 309 310 312 312 313 314 316 317 317 317 320 324 326 329 332 332 335 335 335 335 334 331 329 328 327 328 327 329 330 330 330 329 329 327 324 327 329 327
311 311 312 310 312 311 311 311 311 312 313 314 314 315 316 316 318 323 324 325 329 332 333 335 334 334 333 330 329 329 326 327 327 328 330 330 330 329 329 327 324 328 329 328
311 310 310 311 311 311 310 311 312 313 313 313 314 314 315 316 318 322 324 325 328 331 334 333 334 334 333 331 329 328 326 327 326 327 330 329 330 331 331 329 318 329 327 327
310 311 311 312 310 311 311 312 312 313 312 313 314 314 316 316 318 321 323 324 326 329 332 333 329 336 334 332 330 328 326 327 326 327 329 329 330 331 331 331 320 328 329 329